FW2847 Weather Reports


time (UTC)temp
F
wind
direction
speed
knots
gust
knots
rain 1hr
in
rain 24hr
in
rain mn
in
humidity
%
barometer
mb
20260508031111 53 291 2.6 6.1 0.00 0.01 0.01 56 1020.6
20260508030610 54 290 4.3 7.8 0.00 0.01 0.01 55 1020.6
20260508030110 55 293 4.3 7.8 0.00 0.01 0.01 54 1020.6
20260508025613 55 280 4.3 9.6 0.00 0.01 0.01 53 1020.6
20260508025108 56 290 5.2 9.6 0.00 0.01 0.01 53 1020.6
20260508024608 56 284 6.1 11.3 0.00 0.01 0.01 52 1020.6
20260508024110 56 269 5.2 11.3 0.00 0.01 0.01 51 1020.6
20260508023840 56 269 4.3 8.7 0.00 0.01 0.01 51 1020.6
20260508023110 56 288 1.7 8.7 0.00 0.01 0.01 51 1020.6
20260508022842 56 299 1.7 7.0 0.00 0.01 0.01 49 1020.6
20260508022110 57 290 2.6 7.0 0.00 0.01 0.01 48 1020.6
20260508021609 58 274 3.5 11.3 0.00 0.01 0.01 46 1020.6
20260508021109 58 285 4.3 11.3 0.00 0.01 0.01 45 1020.6
20260508020610 57 311 1.7 9.6 0.00 0.01 0.01 47 1020.6
20260508020340 57 113 0.0 0.9 0.00 0.01 0.01 46 1020.6
20260508015611 57 28 0.0 0.9 0.00 0.01 0.01 47 1020.6
20260508015109 58 27 0.9 3.5 0.00 0.01 0.01 46 1020.6
20260508014841 58 49 0.9 3.5 0.00 0.01 0.01 44 1020.6
20260508014340 59 297 0.9 3.5 0.00 0.01 0.01 43 1020.6
20260508014230 59 294 1.7 3.5 0.00 0.01 0.01 42 1020.6
20260508013111 60 296 0.9 3.5 0.00 0.01 0.01 41 1020.6
20260508012608 60 284 0.9 1.7 0.00 0.01 0.01 41 1020.6
20260508012338 60 335 0.9 1.7 0.00 0.01 0.01 40 1020.6
20260508011840 60 293 0.9 1.7 0.00 0.01 0.01 41 1020.6
20260508011105 60 292 0.0 1.7 0.00 0.01 0.01 41 1020.6
20260508010605 60 55 0.0 0.0 0.00 0.01 0.01 38 1020.6
20260508010106 60 55 0.0 0.0 0.00 0.01 0.01 37 1020.6
20260508005836 60 55 0.0 0.0 0.00 0.01 0.01 37 1020.6
20260508005104 60 52 0.0 0.0 0.00 0.01 0.01 37 1020.6
20260508004604 60 52 0.0 0.0 0.00 0.01 0.01 37 1020.6
20260508004106 60 52 0.0 0.0 0.00 0.01 0.01 39 1020.6
20260508003604 61 51 0.0 0.0 0.00 0.01 0.01 38 1020.6
20260508003106 62 104 0.0 0.0 0.00 0.01 0.01 36 1020.6
20260508002605 62 104 0.0 0.0 0.00 0.01 0.01 35 1020.6
20260508002107 62 103 0.0 0.9 0.00 0.01 0.01 37 1020.6
20260508001604 61 102 0.0 0.9 0.00 0.01 0.01 39 1020.6
20260508001105 61 108 0.0 0.9 0.00 0.01 0.01 39 1020.6
20260508000605 61 357 0.0 0.0 0.00 0.01 0.01 36 1020.6
20260508000107 61 11 0.0 0.0 0.00 0.01 0.01 33 1020.6
20260507235604 62 10 0.0 0.0 0.00 0.01 0.01 33 1020.6
20260507235106 62 10 0.0 0.0 0.00 0.01 0.01 34 1020.6
20260507234604 61 10 0.0 0.0 0.00 0.01 0.01 33 1020.6
20260507234104 61 10 0.0 0.0 0.00 0.01 0.01 33 1020.6
20260507233611 62 10 0.0 0.0 0.00 0.01 0.01 34 1020.6
20260507233607 62 10 0.0 0.0 0.00 0.01 0.01 33 1020.6
20260507232606 62 10 0.0 0.9 0.00 0.01 0.01 33 1020.6
20260507232107 62 10 0.0 0.9 0.00 0.01 0.01 35 1020.6
20260507231604 62 299 0.0 0.0 0.00 0.01 0.01 34 1020.6
20260507231335 62 298 0.0 0.0 0.00 0.01 0.01 35 1020.6
20260507230606 62 298 0.0 1.7 0.00 0.01 0.01 34 1020.6
20260507230106 62 34 0.0 3.5 0.00 0.01 0.01 33 1020.6
20260507225605 62 1 0.0 3.5 0.00 0.01 0.01 32 1020.6
20260507225105 63 303 0.0 1.7 0.00 0.01 0.01 33 1020.6
20260507224606 63 326 0.0 1.7 0.00 0.01 0.01 34 1020.6
20260507224104 64 39 0.0 1.7 0.00 0.01 0.01 33 1020.6
20260507223604 64 159 0.0 0.0 0.00 0.01 0.01 31 1020.6
20260507223107 64 131 0.0 1.7 0.00 0.01 0.01 33 1020.6
20260507222604 63 252 0.0 1.7 0.00 0.01 0.01 31 1020.6
20260507222335 63 321 0.0 1.7 0.00 0.01 0.01 34 1020.6
20260507221604 62 334 0.0 0.0 0.00 0.01 0.01 35 1020.6
20260507221102 61 76 0.0 0.0 0.00 0.01 0.01 34 1020.6
20260507220602 61 68 0.0 0.0 0.00 0.01 0.01 35 1020.6
20260507220104 61 309 0.9 4.3 0.00 0.01 0.01 36 1020.6
20260507215835 62 311 1.7 4.3 0.00 0.01 0.01 32 1020.6
20260507215103 62 304 1.7 5.2 0.00 0.01 0.01 34 1020.6
20260507214600 62 302 1.7 5.2 0.00 0.01 0.01 34 1020.6
20260507214103 62 290 1.7 4.3 0.00 0.01 0.01 35 1020.6
20260507213832 62 284 2.6 6.1 0.00 0.01 0.01 31 1020.6
20260507213100 63 310 4.3 7.8 0.00 0.01 0.01 34 1020.6
20260507212602 63 298 4.3 7.8 0.00 0.01 0.01 31 1020.6
20260507212101 64 293 4.3 13.0 0.00 0.01 0.01 31 1020.6
20260507211833 65 290 4.3 13.0 0.00 0.01 0.01 32 1020.6
20260507211107 64 300 3.5 9.6 0.00 0.01 0.01 34 1020.6
20260507211100 64 300 4.3 9.6 0.00 0.01 0.01 34 1020.6
20260507210100 64 305 3.5 6.1 0.00 0.01 0.01 34 1020.6
20260507205558 64 305 3.5 6.1 0.00 0.01 0.01 32 1020.6
20260507205331 65 297 3.5 8.7 0.00 0.01 0.01 32 1020.6
20260507204600 65 296 4.3 8.7 0.00 0.02 0.01 33 1020.6
20260507204058 65 296 4.3 7.8 0.00 0.02 0.01 34 1020.6
20260507203830 66 316 4.3 7.8 0.00 0.02 0.01 34 1020.6
20260507203059 65 311 3.5 8.7 0.00 0.03 0.01 34 1020.6
20260507202558 65 308 3.5 8.7 0.00 0.04 0.01 32 1020.6
20260507202059 66 331 2.6 7.8 0.00 0.05 0.01 30 1020.6
20260507201558 66 281 1.7 8.7 0.00 0.06 0.01 35 1020.6
20260507201056 65 31 2.6 8.7 0.00 0.07 0.01 34 1020.6
20260507200557 65 301 2.6 7.8 0.00 0.07 0.01 32 1020.6
20260507200057 66 329 2.6 7.8 0.00 0.08 0.01 37 1020.6
20260507195557 65 338 3.5 7.8 0.00 0.09 0.01 36 1020.6
20260507195055 65 335 6.1 11.3 0.00 0.10 0.01 36 1020.6
20260507194554 64 311 6.1 11.3 0.00 0.11 0.01 37 1020.6
20260507194055 64 300 5.2 9.6 0.00 0.12 0.01 35 1020.6
20260507193555 63 283 6.1 13.9 0.00 0.13 0.01 34 1020.6
20260507193054 63 269 7.0 13.9 0.00 0.14 0.01 38 1020.6
20260507192554 62 279 7.8 17.4 0.00 0.15 0.01 34 1020.6
20260507192056 63 289 7.8 17.4 0.00 0.17 0.01 35 1020.6
20260507191556 63 283 7.8 14.8 0.00 0.18 0.01 35 1020.6
20260507191055 62 288 8.7 15.6 0.00 0.18 0.01 36 1020.6
20260507190552 62 304 6.1 15.6 0.00 0.18 0.01 35 1020.6
20260507190053 62 313 2.6 10.4 0.00 0.18 0.01 35 1020.6
20260507185553 62 287 1.7 7.0 0.00 0.18 0.01 42 1020.6
20260507185326 61 221 1.7 7.8 0.00 0.18 0.01 36 1020.6
20260507184552 60 290 2.6 8.7 0.00 0.18 0.01 35 1020.6
20260507184052 59 307 3.5 9.6 0.00 0.18 0.01 36 1020.6
20260507183553 59 295 3.5 9.6 0.00 0.18 0.01 39 1020.6
20260507183053 59 304 3.5 7.8 0.00 0.18 0.01 39 1020.6
20260507182550 59 296 2.6 7.8 0.00 0.18 0.01 36 1020.6
20260507182051 58 292 1.7 7.0 0.00 0.18 0.01 37 1020.6
20260507181552 58 295 1.7 5.2 0.00 0.18 0.01 37 1020.6
20260507181051 58 285 1.7 5.2 0.00 0.18 0.01 38 1020.6
20260507180551 58 288 1.7 5.2 0.00 0.18 0.01 38 1020.6
20260507180051 58 288 0.9 4.3 0.00 0.18 0.01 40 1020.6
20260507175551 58 302 0.0 2.6 0.00 0.18 0.01 40 1020.6
20260507175323 57 273 0.0 0.0 0.00 0.18 0.01 45 1020.6
20260507174551 56 293 0.0 0.9 0.00 0.18 0.01 45 1020.6
20260507174050 56 293 0.0 0.9 0.00 0.18 0.01 46 1020.6
20260507173550 56 290 0.0 0.0 0.00 0.18 0.01 46 1020.6
20260507173319 56 290 0.0 0.9 0.00 0.18 0.01 44 1020.6
20260507172548 56 309 0.0 2.6 0.00 0.18 0.01 44 1020.6
20260507172051 56 301 0.0 2.6 0.00 0.18 0.01 44 1020.6
20260507171818 56 88 0.0 0.0 0.00 0.18 0.01 42 1020.6
20260507171048 56 80 0.0 1.7 0.00 0.18 0.01 43 1020.6
20260507170551 56 80 0.0 1.7 0.00 0.18 0.01 45 1020.6
20260507170048 56 113 0.0 2.6 0.00 0.18 0.01 45 1020.6
20260507165819 56 116 0.0 2.6 0.00 0.18 0.01 45 1020.6
20260507165323 56 95 0.0 1.7 0.00 0.18 0.01 43 1020.6
20260507164547 56 88 0.0 2.6 0.00 0.18 0.01 42 1020.6
20260507164045 56 236 0.9 4.3 0.00 0.18 0.01 42 1020.6
20260507163547 56 278 0.9 4.3 0.00 0.18 0.01 44 1020.6
20260507163047 56 311 0.9 4.3 0.00 0.18 0.01 41 1020.6
20260507162545 56 359 0.9 4.3 0.00 0.18 0.01 42 1020.6
20260507162044 57 79 0.9 5.2 0.00 0.18 0.01 46 1020.6
20260507161545 58 135 1.7 8.7 0.00 0.18 0.01 43 1020.6
20260507161045 58 123 0.9 8.7 0.00 0.18 0.01 39 1020.6
20260507160544 58 88 0.0 3.5 0.00 0.18 0.01 42 1020.6
20260507160043 58 90 0.9 3.5 0.00 0.18 0.01 42 1020.6
20260507155545 59 77 0.9 4.3 0.00 0.18 0.01 38 1020.6
20260507155043 59 167 0.9 4.3 0.00 0.18 0.01 39 1020.6
20260507154542 59 119 0.9 5.2 0.00 0.18 0.01 41 1020.6
20260507154042 58 113 1.7 5.2 0.00 0.18 0.01 41 1020.6
20260507153541 58 342 0.9 3.5 0.00 0.18 0.01 47 1020.6
20260507153315 58 4 0.9 5.2 0.00 0.18 0.01 48 1020.6
20260507152540 57 45 1.7 7.0 0.00 0.18 0.01 47 1020.6
20260507152041 56 58 1.7 7.0 0.00 0.18 0.01 48 1020.6
20260507151542 57 60 1.7 6.1 0.00 0.18 0.01 48 1020.6
20260507151041 59 79 0.9 4.3 0.00 0.18 0.01 46 1020.6
20260507150541 58 304 0.9 5.2 0.00 0.18 0.01 42 1020.6
20260507150310 57 295 3.5 8.7 0.00 0.18 0.01 43 1020.6
20260507145540 57 297 4.3 8.7 0.00 0.18 0.01 42 1020.6
20260507145039 56 259 4.3 11.3 0.00 0.18 0.01 42 1020.6
20260507144538 55 288 6.1 12.2 0.00 0.18 0.01 43 1020.6
20260507144037 55 272 6.1 12.2 0.00 0.18 0.01 43 1020.6
20260507143537 55 272 6.1 13.9 0.00 0.18 0.01 43 1020.6
20260507143035 54 275 7.0 13.9 0.00 0.18 0.01 44 1020.6
20260507142809 54 275 7.0 13.9 0.00 0.18 0.01 44 1020.6
20260507142037 54 301 7.0 13.9 0.00 0.18 0.01 44 1020.6
20260507141535 54 278 7.8 13.9 0.00 0.18 0.01 43 1020.6
20260507141035 53 259 7.8 15.6 0.00 0.18 0.01 42 1020.6
20260507140537 53 278 7.8 15.6 0.00 0.18 0.01 44 1020.6
20260507140037 52 269 7.8 14.8 0.00 0.18 0.01 43 1020.6
20260507135536 52 297 8.7 14.8 0.00 0.18 0.01 44 1020.6
20260507135035 52 293 7.8 14.8 0.00 0.18 0.01 45 1020.6
20260507134536 51 260 7.8 13.9 0.00 0.18 0.01 44 1020.6
20260507134038 51 297 8.7 17.4 0.00 0.18 0.01 44 1020.6
20260507133536 50 273 10.4 17.4 0.00 0.18 0.01 45 1020.6
20260507133036 50 286 11.3 19.1 0.00 0.18 0.01 45 1020.6
20260507132536 50 290 11.3 19.1 0.00 0.18 0.01 45 1020.6
20260507132037 50 288 11.3 19.1 0.00 0.18 0.01 44 1020.6
20260507131536 49 291 11.3 18.2 0.00 0.18 0.01 47 1020.6
20260507131037 49 294 10.4 18.2 0.00 0.18 0.01 47 1020.6
20260507130537 48 273 11.3 18.2 0.00 0.18 0.01 47 1020.6
20260507130037 48 279 11.3 18.2 0.00 0.18 0.01 47 1020.6
20260507125807 48 268 11.3 18.2 0.00 0.18 0.01 47 1020.6
20260507125036 47 296 10.4 17.4 0.00 0.18 0.01 47 1020.6
20260507124538 47 279 11.3 18.2 0.00 0.18 0.01 48 1020.6
20260507124036 47 281 12.2 19.1 0.00 0.18 0.01 46 1020.6
20260507123535 47 293 13.0 19.1 0.00 0.18 0.01 46 1020.6
20260507123307 47 254 12.2 22.6 0.00 0.18 0.01 47 1020.6
20260507122543 47 276 12.2 22.6 0.00 0.18 0.01 47 1020.6
20260507122537 47 292 12.2 22.6 0.00 0.18 0.01 47 1020.6
20260507121537 47 273 11.3 21.7 0.00 0.18 0.01 47 1020.6
20260507121307 46 252 9.6 18.2 0.00 0.18 0.01 47 1020.6
20260507120806 46 276 8.7 19.1 0.00 0.18 0.01 48 1020.6
20260507120306 46 282 7.8 19.1 0.00 0.18 0.01 49 1020.6
20260507115536 46 277 7.8 13.9 0.00 0.18 0.01 49 1020.6
20260507115037 46 288 8.7 15.6 0.00 0.18 0.01 48 1020.6
20260507114535 47 330 9.6 17.4 0.00 0.18 0.01 46 1020.6
20260507114036 46 322 10.4 17.4 0.00 0.18 0.01 47 1020.6
20260507113536 46 299 9.6 20.0 0.00 0.18 0.01 46 1020.6
20260507113035 46 254 8.7 20.0 0.00 0.18 0.01 46 1020.6
20260507112809 46 314 8.7 17.4 0.00 0.18 0.01 47 1020.6
20260507112658 47 302 9.6 17.4 0.00 0.18 0.01 45 1020.6
20260507111808 47 286 9.6 16.5 0.00 0.18 0.01 46 1020.6
20260507111036 47 282 8.7 16.5 0.00 0.18 0.01 45 1020.6
20260507110537 47 302 8.7 16.5 0.00 0.18 0.01 44 1020.6
20260507110037 48 302 7.8 14.8 0.00 0.18 0.01 41 1020.6
20260507105535 48 280 7.8 17.4 0.00 0.18 0.01 42 1020.6
20260507105036 47 265 8.7 17.4 0.00 0.18 0.01 42 1020.6
20260507104535 47 263 8.7 17.4 0.00 0.18 0.01 43 1020.6
20260507104038 47 285 8.7 15.6 0.00 0.18 0.01 43 1020.6
20260507103535 47 313 7.8 13.9 0.00 0.18 0.01 44 1020.6
20260507103035 47 254 7.0 13.0 0.00 0.18 0.01 45 1020.6
20260507102808 46 265 7.0 13.9 0.00 0.18 0.01 45 1020.6
20260507102035 46 299 8.7 15.6 0.00 0.18 0.01 46 1020.6
20260507101536 46 319 8.7 15.6 0.00 0.18 0.01 46 1020.6
20260507101035 46 302 8.7 14.8 0.00 0.18 0.01 47 1020.6
20260507100537 47 317 8.7 15.6 0.00 0.18 0.01 45 1020.6
20260507100040 46 298 8.7 15.6 0.00 0.18 0.01 46 1020.6
20260507100036 47 298 8.7 15.6 0.00 0.18 0.01 44 1020.6
20260507095037 46 281 8.7 14.8 0.00 0.18 0.01 46 1020.6
20260507094534 46 281 7.8 13.9 0.00 0.18 0.01 46 1020.6
20260507094033 46 281 7.8 14.8 0.00 0.18 0.01 45 1020.6
20260507093535 46 296 7.8 14.8 0.00 0.18 0.01 47 1020.6
20260507093034 46 277 8.7 18.2 0.00 0.18 0.01 46 1020.6
20260507092533 46 304 8.7 18.2 0.00 0.18 0.01 47 1020.6
20260507092307 46 309 8.7 14.8 0.00 0.18 0.01 46 1020.6
20260507091536 46 264 8.7 16.5 0.00 0.18 0.01 44 1020.6
20260507091034 46 264 8.7 18.2 0.00 0.18 0.01 45 1020.6
20260507090535 46 299 8.7 18.2 0.00 0.18 0.01 45 1020.6
20260507090035 46 294 10.4 20.0 0.01 0.18 0.01 44 1020.6
20260507085534 46 300 11.3 20.0 0.01 0.18 0.01 43 1020.6
20260507085033 46 285 10.4 18.2 0.01 0.18 0.01 43 1020.6
20260507084803 46 298 10.4 20.9 0.01 0.18 0.01 43 1020.6
20260507084032 46 299 9.6 20.9 0.01 0.18 0.01 43 1020.6
20260507083531 45 274 9.6 16.5 0.01 0.18 0.01 43 1020.6
20260507083031 45 271 8.7 15.6 0.01 0.18 0.01 43 1020.6
20260507082533 44 283 9.6 18.2 0.01 0.18 0.01 45 1020.6
20260507082032 44 278 9.6 18.2 0.01 0.18 0.01 45 1020.6
20260507081532 44 311 9.6 15.6 0.01 0.18 0.01 44 1020.6
20260507081032 44 273 8.7 16.5 0.01 0.18 0.01 45 1020.6
20260507080531 44 278 8.7 16.5 0.01 0.18 0.01 45 1020.6
20260507080302 44 291 8.7 16.5 0.00 0.17 0.00 43 1020.6
20260507080154 44 271 7.8 15.6 0.00 0.17 0.00 43 1020.6
20260507075033 44 273 7.0 14.8 0.00 0.17 0.00 45 1020.6
20260507074531 43 255 7.0 13.0 0.00 0.17 0.00 45 1020.6
20260507074033 43 285 7.0 14.8 0.00 0.17 0.00 44 1020.6
20260507073531 43 296 7.0 14.8 0.00 0.17 0.00 44 1020.6
20260507073034 44 282 5.2 12.2 0.00 0.17 0.00 42 1020.6
20260507072531 44 269 5.2 12.2 0.00 0.17 0.00 43 1020.6
20260507072032 44 304 4.3 12.2 0.00 0.17 0.00 40 1020.6
20260507071532 44 286 4.3 13.0 0.00 0.17 0.00 41 1020.6
20260507071033 44 314 3.5 13.0 0.00 0.17 0.00 42 1020.6
20260507070532 43 274 1.7 9.6 0.00 0.17 0.00 44 1020.6
20260507070030 42 340 0.9 6.1 0.00 0.17 0.00 46 1020.6
20260507065530 42 302 0.9 6.1 0.00 0.17 0.00 45 1020.6
20260507065031 42 302 0.9 6.1 0.00 0.17 0.00 48 1020.6
20260507064529 42 300 0.9 3.5 0.00 0.17 0.00 47 1020.6
20260507064030 43 297 1.7 5.2 0.00 0.17 0.00 46 1020.6
20260507063530 43 252 1.7 5.2 0.00 0.17 0.00 45 1020.6
20260507063301 42 280 0.9 4.3 0.00 0.17 0.00 48 1020.6
20260507062803 41 283 0.9 3.5 0.00 0.17 0.00 50 1020.6
20260507062029 42 268 0.9 2.6 0.00 0.17 0.00 49 1020.6
20260507061530 41 337 0.9 3.5 0.00 0.17 0.00 50 1020.6
20260507061030 40 42 0.9 3.5 0.00 0.17 0.00 53 1020.6
20260507060527 40 51 0.9 4.3 0.00 0.17 0.00 55 1020.6
20260507060026 39 114 0.9 4.3 0.00 0.17 0.00 57 1020.6
20260507055527 39 89 0.0 3.5 0.00 0.17 0.17 58 1020.6
20260507055026 39 129 0.0 3.5 0.00 0.17 0.17 61 1020.6
20260507054527 38 121 0.0 2.6 0.00 0.17 0.17 67 1020.6
20260507054025 38 255 0.0 1.7 0.00 0.17 0.17 70 1020.6
20260507053527 39 77 0.0 2.6 0.00 0.17 0.17 73 1020.6
20260507053023 38 94 0.0 2.6 0.00 0.17 0.17 79 1020.6
20260507052524 38 117 0.0 0.9 0.00 0.17 0.17 88 1020.6
20260507052023 37 119 0.0 2.6 0.00 0.17 0.17 95 1020.6
20260507051524 36 285 0.0 2.6 0.00 0.17 0.17 96 1020.6
20260507051022 36 283 0.0 2.6 0.00 0.17 0.17 97 1020.6
20260507050754 36 283 0.0 2.6 0.00 0.17 0.17 97 1020.6
20260507050639 36 148 0.0 2.6 0.00 0.17 0.17 97 1020.6
20260507045521 35 257 0.0 2.6 0.00 0.17 0.17 97 1020.6
20260507045021 34 151 0.0 0.9 0.00 0.17 0.17 97 1020.6
20260507044520 35 134 0.0 0.0 0.00 0.17 0.17 97 1020.6
20260507044024 34 157 0.0 0.0 0.00 0.17 0.17 97 1020.6
20260507043522 34 231 0.0 0.0 0.00 0.17 0.17 97 1020.6
20260507043020 33 233 0.0 0.0 0.00 0.17 0.17 96 1020.6
20260507042518 33 264 0.0 0.0 0.00 0.17 0.17 97 1020.6
20260507042020 33 264 0.0 0.0 0.00 0.17 0.17 97 1020.6
20260507041750 33 292 0.0 1.7 0.00 0.17 0.17 96 1020.6
20260507041021 33 292 0.0 1.7 0.00 0.17 0.17 96 1020.6
20260507040518 33 290 0.0 0.9 0.00 0.17 0.17 96 1020.6
20260507040253 33 304 0.0 0.9 0.00 0.17 0.17 96 1020.6
20260507035518 32 321 0.0 0.0 0.00 0.17 0.17 96 1020.6
20260507035016 32 321 0.0 0.0 0.00 0.17 0.17 96 1020.6
20260507034518 31 293 0.0 0.9 0.00 0.17 0.17 96 1020.6
20260507034251 32 295 0.0 0.9 0.00 0.17 0.17 96 1020.6
20260507033516 32 217 0.0 0.0 0.00 0.17 0.17 96 1020.6
20260507033015 32 217 0.0 0.0 0.00 0.17 0.17 96 1020.6
20260507032514 32 217 0.0 0.0 0.00 0.17 0.17 96 1020.6
20260507032013 32 217 0.0 0.0 0.00 0.17 0.17 96 1020.6
20260507031744 31 266 0.0 0.0 0.00 0.17 0.17 96 1020.6
20260507031245 32 140 0.0 0.0 0.00 0.17 0.17 96 1020.6